#timestamp,LO_Frequency,Hit 
1499925615.0,286046978.0,N
1499925615.9,286046978.0,N
1499925635.7,286046979.4,N
1499925655.6,286046981.4,N
1499925675.4,286046981.6,N
1499925695.2,286046979.0,N
1499925715.1,286046981.8,N
1499925716.0,286046981.8,N
1499925735.8,286046981.5,N
1499925755.6,286046980.7,N
1499925775.5,286046981.7,N
1499925795.3,286046977.9,N
1499925815.1,286046976.1,N
1499925835.9,286046975.9,N
1499925855.7,286046976.9,N
1499925875.5,286046976.8,N
1499925895.4,286046977.2,N
1499925915.2,286046976.8,N
1499925935.0,286046976.9,N
1499925935.9,286046976.9,N
1499925955.8,286046976.8,N
1499925975.6,286046972.6,N
1499925995.4,286046976.2,N
1499926015.3,286046974.5,N
1499926035.1,286046973.9,N
1499926036.0,286046973.9,N
1499926055.8,286046976.1,N
1499926075.7,286046980.6,N
1499926095.5,286046983.5,N
1499926115.3,286046974.5,N
1499926135.1,286046974.4,N
1499926155.9,286046974.8,N
1499926175.7,286046975.1,N
1499926195.5,286046969.7,N
1499926215.4,286046963.7,N
1499926235.2,286046961.3,N
1499926255.0,286046964.2,N
1499926255.9,286046964.2,N
1499926275.8,286046963.8,N
1499926295.6,286046967.6,N
1499926315.4,286046964.9,N
1499926335.3,286046966.5,N
1499926355.1,286046969.1,N
1499926356.0,286046969.1,N
1499926375.8,286046967.3,N
1499926395.7,286046965.8,N
1499926415.5,286046965.6,N
1499926435.3,286046967.4,N
1499926455.1,286046967.0,N
1499926475.9,286046967.2,N
1499926495.7,286046962.9,N
1499926515.5,286046960.4,N
1499926535.4,286046962.5,N
1499926555.2,286046963.8,N
1499926575.0,286046962.9,N
1499926575.9,286046962.9,N
1499926595.8,286046965.1,N
1499926615.6,286046964.9,N
1499926635.4,286046964.3,N
1499926655.3,286046962.4,N
1499926675.1,286046964.0,N
1499926676.0,286046964.0,N
1499926695.8,286046963.7,N
1499926715.7,286046964.4,N
1499926735.5,286046963.7,N
1499926755.3,286046964.2,N
1499926775.2,286046963.4,N
1499926795.9,286046961.7,N
1499926815.7,286046964.4,N
1499926835.6,286046963.8,N
1499926855.4,286046963.2,N
1499926875.2,286046964.2,N
1499926895.0,286046963.9,N
1499926895.9,286046963.9,N
1499926915.8,286046961.4,N
1499926935.6,286046961.6,N
1499926955.4,286046961.4,N
1499926975.3,286046964.3,N
1499926995.1,286046961.7,N
1499927015.8,286046962.7,N
1499927035.7,286046960.5,N
1499927055.5,286046958.1,N
1499927075.3,286046960.3,N
1499927095.2,286046962.2,N
1499927115.0,286046960.7,N
1499927115.9,286046960.7,N
1499927135.7,286046961.1,N
1499927155.6,286046958.4,N
1499927175.4,286046956.6,N
1499927195.2,286046956.8,N
1499927215.1,286046957.8,N
1499927216.0,286046957.8,N
1499927235.8,286046956.5,N
1499927255.6,286046957.3,N
1499927275.5,286046950.6,N
1499927295.3,286046947.3,N
1499927315.1,286046945.9,N
1499927335.9,286046946.0,N
1499927355.7,286046944.1,N
1499927375.5,286046945.5,N
1499927395.4,286046947.5,N
1499927415.2,286046949.3,N
1499927435.0,286046952.7,N
1499927435.9,286046952.7,N
1499927455.8,286046945.6,N
1499927475.6,286046942.1,N
1499927495.4,286046938.4,N
1499927515.2,286046938.8,N
1499927535.1,286046941.0,N
1499927536.0,286046941.0,N
1499927555.8,286046940.9,N
1499927575.6,286046938.1,N
1499927595.5,286046940.5,N
1499927615.3,286046946.5,N
1499927635.1,286046945.8,N
1499927655.9,286046948.1,N
1499927675.7,286046947.0,N
1499927695.5,286046949.9,N
1499927715.4,286046950.0,N
1499927735.2,286046947.8,N
1499927755.0,286046948.1,N
1499927755.9,286046948.1,N
1499927775.8,286046948.2,N
1499927795.6,286046948.2,N
1499927815.4,286046948.1,N
1499927835.3,286046947.2,N
1499927855.1,286046949.4,N
1499927856.0,286046949.4,N
1499927875.8,286046947.1,N
1499927895.7,286046947.9,N
1499927915.5,286046944.0,N
1499927935.3,286046942.7,N
1499927955.2,286046944.4,N
1499927975.9,286046942.8,N
1499927995.7,286046943.2,N
1499928015.5,286046941.2,N
1499928035.4,286046941.7,N
1499928055.2,286046941.6,N
1499928075.0,286046941.1,N
1499928075.9,286046941.1,N
1499928095.8,286046943.4,N
1499928115.6,286046945.0,N
1499928135.4,286046942.5,N
1499928155.3,286046939.3,N
1499928175.1,286046936.8,N
1499928195.8,286046935.4,N
1499928215.7,286046938.8,N
1499928235.5,286046939.8,N
1499928255.3,286046939.5,N
1499928275.2,286046942.0,N
1499928295.9,286046941.4,N
1499928315.7,286046942.2,N
1499928335.6,286046943.9,N
1499928355.4,286046946.0,N
1499928375.2,286046946.1,N
1499928395.0,286046944.7,N
1499928395.9,286046944.7,N
1499928415.8,286046944.8,N
1499928435.6,286046944.7,N
1499928455.4,286046944.1,N
1499928475.3,286046946.7,N
1499928495.1,286046944.6,N
1499928515.8,286046943.8,N
1499928535.7,286046944.7,N
1499928555.5,286046944.7,N
1499928575.3,286046943.1,N
1499928595.2,286046940.4,N
1499928615.9,286046941.4,N
1499928635.8,286046942.3,N
1499928655.6,286046944.9,N
1499928675.4,286046946.4,N
1499928695.3,286046946.8,N
1499928715.1,286046948.0,N
1499928716.0,286046948.0,N
1499928735.8,286046948.4,N
1499928755.7,286046947.5,N
1499928775.5,286046947.4,N
1499928795.3,286046948.2,N
1499928815.1,286046947.2,N
1499928835.9,286046950.0,N
1499928855.7,286046949.5,N
1499928875.5,286046949.9,N
1499928895.4,286046949.6,N
1499928915.2,286046947.5,N
1499928935.0,286046947.6,N
1499928935.9,286046947.6,N
1499928955.8,286046946.1,N
1499928975.6,286046942.5,N
1499928995.4,286046942.5,N
1499929015.3,286046944.2,N
1499929035.1,286046944.9,N
1499929055.8,286046943.1,N
1499929075.7,286046942.3,N
1499929095.5,286046941.0,N
1499929115.3,286046942.0,N
1499929135.2,286046940.8,N
1499929155.9,286046945.0,N
1499929175.7,286046946.6,N
1499929195.6,286046946.1,N
